Location: St. Louis
(38.6270°N, 90.1994°W)
Time: 08:46:57
(UTC-06:00)

SR - Pass Details

Date: 08 December 2021
Orbit: 582 x 872 km, 66.7° (Epoch: 21 January)

Event Time Altitude Azimuth Distance (km) Brightness Sun altitude
Rises 07:15:55 0° 333° (NNW) 2,838 ? 0.8°
Reaches altitude 10° 07:18:07 10° 334° (NNW) 1,954 ? 1.2°
Maximum altitude 07:22:30 78° 61° (ENE) 647 ? 1.9°
Drops below altitude 10° 07:27:11 10° 148° (SSE) 2,080 ? 2.7°
Sets 07:29:34 0° 150° (SSE) 3,037 ? 3.1°
